This is the latest recevied weather packets stored in our database for station/object WA6ODQ-13. If no packets are shown the sender has not sent any weather packets the latest 10 day(s).
| Time | Temp. | Humidity | Pressure | Rain* | Wind** | Luminosity | Snow |
|---|---|---|---|---|---|---|---|
| 1777731120 | 12.78° C | 88% | 1009.3 hPa | 0 mm | - | 30 W/m² | - |
| 1777730514 | 12.78° C | 88% | 1009.2 hPa | 0 mm | - | 28 W/m² | - |
| 1777730209 | 12.78° C | 88% | 1009.5 hPa | 0 mm | - | 24 W/m² | - |
| 1777729907 | 12.78° C | 88% | 1009.5 hPa | 0 mm | - | 23 W/m² | - |
| 1777729603 | 12.78° C | 88% | 1009.2 hPa | 0 mm | - | 20 W/m² | - |
| 1777729300 | 12.78° C | 88% | 1009.1 hPa | 0 mm | - | 17 W/m² | - |
| 1777728997 | 12.78° C | 88% | 1009.1 hPa | 0 mm | - | 12 W/m² | - |
| 1777728693 | 12.78° C | 88% | 1008.9 hPa | 0 mm | - | 9 W/m² | - |
| 1777728390 | 12.78° C | 87% | 1008.9 hPa | 0 mm | - | 6 W/m² | - |
| 1777728087 | 12.78° C | 87% | 1008.9 hPa | 0 mm | - | 4 W/m² | - |
| 1777727785 | 12.78° C | 87% | 1009 hPa | 0 mm | - | 2 W/m² | - |
| 1777727481 | 12.78° C | 86% | 1009.1 hPa | 0 mm | - | 2 W/m² | - |
| 1777727179 | 12.78° C | 86% | 1009 hPa | 0 mm | - | 1 W/m² | - |
| 1777726877 | 12.78° C | 86% | 1008.7 hPa | 0 mm | - | 0 W/m² | - |
| 1777726572 | 12.78° C | 85% | 1008.8 hPa | 0 mm | - | 0 W/m² | - |
| 1777726270 | 12.78° C | 84% | 1008.8 hPa | 0 mm | - | 0 W/m² | - |
| 1777725967 | 12.78° C | 83% | 1008.8 hPa | 0 mm | - | 0 W/m² | - |
| 1777725663 | 12.78° C | 83% | 1008.7 hPa | 0 mm | - | 0 W/m² | - |
| 1777725362 | 12.78° C | 83% | 1008.8 hPa | 0 mm | - | 0 W/m² | - |
| 1777725058 | 12.78° C | 83% | 1008.6 hPa | 0 mm | - | 0 W/m² | - |
| 1777724755 | 12.78° C | 83% | 1008.4 hPa | 0 mm | - | 0 W/m² | - |
| 1777724452 | 12.78° C | 83% | 1008.4 hPa | 0 mm | - | 0 W/m² | - |
| 1777724149 | 12.78° C | 83% | 1008.4 hPa | 0 mm | - | 0 W/m² | - |
| 1777723847 | 12.78° C | 84% | 1008.6 hPa | 0 mm | - | 0 W/m² | - |
| 1777723543 | 12.78° C | 85% | 1008.4 hPa | 0 mm | - | 0 W/m² | - |
* Rain latest hour (hover to see other rain measurements)
** Current wind speed in m/s (hover to see current wind gust speed)